STARLINK-31932, 59929

Orbit data source: Space-Track

STARLINK-31932, 59929 is a payload satellite owned by SpaceX/Seattle (US) in LEO that was launched on Sat, 01 Jun 2024 UTC via an FALCON 9 launch vehicle from the Air Force Eastern Test Range (AFETR). Payload-class satellites include a variety of spacecraft equipped with specific instruments for various scientific and technological missions. These include communications satellites like Starlink; space stations such as the ISS; scientific satellites like the Hubble; Earth observation satellites from companies like Planet Labs, Umbra, and HawkEye 360; GPS; miniature CubeSats for education and research; and military/defense satellites.

Loading next visibility...
Identifier
59929, 2024-106H
Orbit
LEO
Last TLE update
16 hours ago
Origin
Manufacturer
SpaceX/Seattle
Mission
Operational spacecraft
Bus & Motor
STARLINK V2M, Unknown motor
Mass
730 kg wet, ~700 kg dry
Launch date (UTC)
2024-06-01 (1 year ago)
Launch vehicle
FALCON 9
Launch site
Air Force Eastern Test Range (AFETR)
Object type
Payload
Rocket body
Debris
Shape & HBR
Unknown
Radar Cross Section
Large (>1 m²)

Expand to show TLE details & history

TLE from 16 hours ago
0 STARLINK-31932
1 59929U 24106H   25199.31211894 -.00232398  00000-0 -87281-2 0  9999
2 59929  42.9961 212.9529 0001823 285.2183  74.8467 15.27485559 64715
Epoch: 2025-07-18T07:29Z
TLE epoch observation values (Epoch: 2025-07-18T07:29:27.076Z)
Latitude
-0.00001°
Longitude
164.22469°
Altitude
482.78 km
Speed
7.626 km/s
True Right ascension
14h 11m 48s
True Declination
0° 00' 00"
Sunlit
Object was in daylight at epoch
Visualization orbit readout
Latitude
40.21737°
Longitude
-83.98939°
Altitude
488.08 km
Speed
7.626 km/s
Apparent Right ascension
23h 00m 07s
Apparent Declination
2° 03' 37"
Sunlit
Object is in full shadow
Visualization observer readout
Local Sidereal Time
12:27:23
Azimuth
30.806° NE
Elevation
-43.513°
Doppler factor
1
Orbital elements
Apogee altitude
486.529 km
Perigee altitude
484.026 km
Semi-major axis
6,863.415 km
Eccentricity
0.00018
Inclination
42.9961°
RAAN
212.9529°
Arg. of periapsis
285.2183°
True anomaly
74.86686°
Mean anomaly
74.8467°
Eccentric anomaly
74.85678°
Mean motion
3.81709 °/min
Orbital period
94.31 mins
BSTAR
-0.0087281
Loading maneuver chart data...
Loading SW <> Apogee altitude chart data...
Loading historical data...
Loading historical data...
Loading historical data...
Loading historical data...
Loading historical data...
Loading historical data...
Loading historical data...
|